Monroe, MI

10:08 PM EDT on May 29, 2017 (GMT -0400)
Custer

Weather History for KTTF - November, 2012

Change the Weather History Date:

Wednesday, November 7, 2012

  Actual Average Record
Temperature  
Mean Temperature 39 °F -  
Max Temperature 50 °F 48 °F 74 °F (1975)
Min Temperature 26 °F 34 °F 20 °F (1991)
Degree Days  
Heating Degree Days 26    
Moisture  
Dew Point 30 °F    
Average Humidity 75    
Maximum Humidity 100    
Minimum Humidity 43    
Precipitation  
Precipitation 0.00 in - - ()
Sea Level Pressure  
Sea Level Pressure 30.03 in    
Wind  
Wind Speed 6 mph (NE)    
Max Wind Speed 12 mph    
Max Gust Speed -    
Visibility 9 miles    
Events      
Averages and records for this station are not official NWS values.
T = Trace of Precipitation, MM = Missing Value Source: NWS Daily Summary

Daily Weather History Graph

Daily Weather History Graph

Search for Another Location

Airport or City:

Trip Planner

Search our weather history database for the weather conditions in past years. The results will help you decide how hot, cold, wet, or windy it might be!

Date:

Astronomy

Nov. 07, 2012 Rise Set
Actual Time 7:14 AM EST 5:20 PM EST
Civil Twilight 6:44 AM EST 5:49 PM EST
Nautical Twilight 6:11 AM EST 6:22 PM EST
Astronomical Twilight 5:38 AM EST 6:55 PM EST
Moon 12:00 AM EST (11/7) 1:34 PM EST (11/7)
Length of Visible Light 11h 04m
Length of Day
10h 05m
Last Quarter, 43% of the Moon is Illuminated
Nov 7
Last Quarter
Nov 13
New
Nov 20
First Quarter
Nov 28
Full
Dec 6
Last Quarter

Hourly Weather History & Observations

Time (EST) Temp. Windchill Dew Point Humidity Pressure Visibility Wind Dir Wind Speed Gust Speed Precip Events Conditions
12:12 AM 33.8 °F 27.7 °F 30.2 °F 87% 29.96 in 10.0 mi NE 6.9 mph - N/A   Clear
12:32 AM 33.8 °F 28.6 °F 30.2 °F 87% 29.96 in 10.0 mi NE 5.8 mph - N/A   Clear
12:52 AM 33.8 °F 27.7 °F 30.2 °F 87% 29.95 in 10.0 mi NE 6.9 mph - N/A   Clear
1:12 AM 33.8 °F 27.7 °F 30.2 °F 87% 29.95 in 10.0 mi NE 6.9 mph - N/A   Clear
1:33 AM 33.8 °F 27.7 °F 30.2 °F 87% 29.95 in 10.0 mi NE 6.9 mph - N/A   Clear
1:53 AM 33.8 °F 28.6 °F 30.2 °F 87% 29.95 in 10.0 mi NE 5.8 mph - N/A   Clear
2:13 AM 33.8 °F 29.6 °F 30.2 °F 87% 29.95 in 10.0 mi NNE 4.6 mph - N/A   Clear
2:33 AM 33.8 °F 28.6 °F 30.2 °F 87% 29.95 in 10.0 mi NNE 5.8 mph - N/A   Clear
2:53 AM 33.8 °F 29.6 °F 30.2 °F 87% 29.96 in 10.0 mi NNE 4.6 mph - N/A   Clear
3:13 AM 33.8 °F 28.6 °F 30.2 °F 87% 29.96 in 10.0 mi NNE 5.8 mph - N/A   Clear
3:33 AM 30.2 °F 25.4 °F 30.2 °F 100% 29.96 in 10.0 mi North 4.6 mph - N/A   Clear
3:53 AM 30.2 °F 25.4 °F 28.4 °F 93% 29.96 in 7.0 mi North 4.6 mph - N/A   Clear
4:13 AM 30.2 °F 26.7 °F 28.4 °F 93% 29.97 in 7.0 mi NNE 3.5 mph - N/A   Scattered Clouds
4:34 AM 32.0 °F 27.5 °F 30.2 °F 93% 29.96 in 10.0 mi NNE 4.6 mph - N/A   Scattered Clouds
4:54 AM 32.0 °F 26.4 °F 30.2 °F 93% 29.96 in 10.0 mi NNE 5.8 mph - N/A   Scattered Clouds
5:14 AM 33.8 °F 27.7 °F 28.4 °F 81% 29.96 in 10.0 mi NNE 6.9 mph - N/A   Mostly Cloudy
5:34 AM 32.0 °F 26.4 °F 28.4 °F 87% 29.96 in 10.0 mi NNE 5.8 mph - N/A   Scattered Clouds
5:54 AM 30.2 °F 25.4 °F 28.4 °F 93% 29.97 in 10.0 mi North 4.6 mph - N/A   Clear
6:14 AM 30.2 °F 23.4 °F 26.6 °F 86% 29.97 in 10.0 mi North 6.9 mph - N/A   Clear
6:34 AM 28.4 °F 21.2 °F 26.6 °F 93% 29.97 in 7.0 mi North 6.9 mph - N/A   Clear
6:54 AM 28.4 °F 20.4 °F 26.6 °F 93% 29.98 in 7.0 mi North 8.1 mph - N/A   Clear
7:14 AM 28.4 °F 20.4 °F 26.6 °F 93% 29.98 in 7.0 mi North 8.1 mph - N/A   Clear
7:34 AM 30.2 °F 24.3 °F 28.4 °F 93% 29.99 in 7.0 mi North 5.8 mph - N/A   Clear
7:55 AM 32.0 °F 26.4 °F 28.4 °F 87% 30.00 in 7.0 mi NNE 5.8 mph - N/A   Clear
8:15 AM 33.8 °F 27.7 °F 28.4 °F 81% 30.01 in 10.0 mi North 6.9 mph - N/A   Clear
8:35 AM 35.6 °F 30.7 °F 30.2 °F 81% 30.01 in 7.0 mi North 5.8 mph - N/A   Clear
8:55 AM 35.6 °F 29.9 °F 30.2 °F 81% 30.01 in 10.0 mi NNE 6.9 mph - N/A   Clear
9:15 AM 37.4 °F 30.8 °F 32.0 °F 81% 30.01 in 7.0 mi NNE 9.2 mph - N/A   Clear
9:35 AM 39.2 °F 34.2 °F 32.0 °F 75% 30.02 in 7.0 mi NNE 6.9 mph - N/A   Clear
9:55 AM 39.2 °F 34.2 °F 33.8 °F 81% 30.02 in 7.0 mi North 6.9 mph - N/A   Clear
10:15 AM 42.8 °F 38.6 °F 33.8 °F 70% 30.03 in 7.0 mi NNE 6.9 mph - N/A   Clear
10:35 AM 42.8 °F 39.3 °F 35.6 °F 76% 30.03 in 10.0 mi NNE 5.8 mph - N/A   Clear
10:56 AM 44.6 °F 40.7 °F 35.6 °F 71% 30.04 in 10.0 mi ENE 6.9 mph - N/A   Clear
11:11 AM 46.4 °F 41.9 °F 35.6 °F 66% 30.04 in 10.0 mi ENE 9.2 mph - N/A   Clear
11:31 AM 48.2 °F - 35.6 °F 62% 30.04 in 10.0 mi ENE 11.5 mph - N/A   Clear
11:51 AM 48.2 °F - 37.4 °F 66% 30.03 in 10.0 mi ENE 11.5 mph - N/A   Scattered Clouds
12:11 PM 48.2 °F - 37.4 °F 66% 30.03 in 10.0 mi NE 6.9 mph - N/A   Mostly Cloudy
12:31 PM 48.2 °F - 37.4 °F 66% 30.03 in 10.0 mi NE 5.8 mph - N/A   Mostly Cloudy
12:51 PM 46.4 °F 43.5 °F 35.6 °F 66% 30.02 in 10.0 mi NE 5.8 mph - N/A   Mostly Cloudy
1:11 PM 46.4 °F 42.9 °F 35.6 °F 66% 30.02 in 10.0 mi East 6.9 mph - N/A   Mostly Cloudy
1:31 PM 50.0 °F - 35.6 °F 58% 30.02 in 10.0 mi NE 8.1 mph - N/A   Mostly Cloudy
1:51 PM 48.2 °F - 35.6 °F 62% 30.03 in 10.0 mi NNE 6.9 mph - N/A   Overcast
2:12 PM 46.4 °F 44.3 °F 35.6 °F 66% 30.03 in 10.0 mi NE 4.6 mph - N/A   Mostly Cloudy
2:32 PM 50.0 °F - 33.8 °F 54% 30.02 in 10.0 mi ENE 8.1 mph - N/A   Mostly Cloudy
2:52 PM 48.2 °F - 33.8 °F 58% 30.02 in 10.0 mi ENE 8.1 mph - N/A   Mostly Cloudy
3:12 PM 48.2 °F - 30.2 °F 50% 30.02 in 10.0 mi NNE 8.1 mph - N/A   Scattered Clouds
3:32 PM 48.2 °F - 28.4 °F 46% 30.03 in 10.0 mi NE 8.1 mph - N/A   Scattered Clouds
3:52 PM 48.2 °F - 26.6 °F 43% 30.03 in 10.0 mi ENE 6.9 mph - N/A   Clear
4:12 PM 48.2 °F - 26.6 °F 43% 30.04 in 10.0 mi NNE 8.1 mph - N/A   Clear
4:32 PM 46.4 °F 42.4 °F 26.6 °F 46% 30.05 in 10.0 mi ENE 8.1 mph - N/A   Clear
4:52 PM 46.4 °F 43.5 °F 28.4 °F 50% 30.05 in 10.0 mi ENE 5.8 mph - N/A   Clear
5:12 PM 44.6 °F 41.4 °F 26.6 °F 49% 30.06 in 10.0 mi ENE 5.8 mph - N/A   Clear
5:33 PM 42.8 °F 40.1 °F 26.6 °F 53% 30.06 in 10.0 mi East 4.6 mph - N/A   Clear
5:53 PM 41.0 °F 38.0 °F 26.6 °F 57% 30.07 in 10.0 mi East 4.6 mph - N/A   Clear
6:13 PM 39.2 °F 37.0 °F 26.6 °F 61% 30.08 in 10.0 mi East 3.5 mph - N/A   Clear
6:33 PM 39.2 °F - 26.6 °F 61% 30.08 in 5.0 mi Calm Calm - N/A   Haze
6:53 PM 37.4 °F - 26.6 °F 65% 30.09 in 10.0 mi Calm Calm - N/A   Clear
7:13 PM 35.6 °F - 26.6 °F 70% 30.09 in 10.0 mi Calm Calm - N/A   Clear
7:33 PM 33.8 °F - 26.6 °F 75% 30.10 in 10.0 mi Calm Calm - N/A   Clear
7:53 PM 33.8 °F - 26.6 °F 75% 30.09 in 10.0 mi Calm Calm - N/A   Clear
8:13 PM 32.0 °F - 26.6 °F 80% 30.10 in 10.0 mi Calm Calm - N/A   Clear
8:33 PM 39.2 °F 35.9 °F 28.4 °F 65% 30.10 in 10.0 mi NE 4.6 mph - N/A   Clear
8:54 PM 37.4 °F 32.8 °F 30.2 °F 75% 30.11 in 10.0 mi NE 5.8 mph - N/A   Clear
9:14 PM 37.4 °F 34.9 °F 30.2 °F 75% 30.11 in 10.0 mi NE 3.5 mph - N/A   Clear
9:34 PM 37.4 °F 34.9 °F 30.2 °F 75% 30.12 in 10.0 mi NE 3.5 mph - N/A   Clear
9:54 PM 37.4 °F - 30.2 °F 75% 30.13 in 10.0 mi Calm Calm - N/A   Clear
10:14 PM 33.8 °F - 28.4 °F 81% 30.13 in 10.0 mi Calm Calm - N/A   Clear
10:34 PM 33.8 °F - 30.2 °F 87% 30.13 in 10.0 mi Calm Calm - N/A   Clear
10:54 PM 33.8 °F - 28.4 °F 81% 30.13 in 10.0 mi Calm Calm - N/A   Clear
11:14 PM 30.2 °F - 26.6 °F 86% 30.13 in 10.0 mi Calm Calm - N/A   Clear
11:34 PM 30.2 °F - 28.4 °F 93% 30.13 in 10.0 mi Calm Calm - N/A   Clear
11:55 PM 26.6 °F - 24.8 °F 93% 30.13 in 10.0 mi Calm Calm - N/A   Clear